"Pseudo-MPEC" for P10Ny0j

Created 2019 May 26 16:07:23 UT using Find_Orb

Click here for an explanation of pseudo-MPECs

 
 Astrometry: 
     P10Ny0j  C2019 05 07IxL1,-S9Astrometry',+Z;w0URyUyXAbM0K_-JTxs,J*l27_mCjF51
     P10Ny0j  C2019 05 07M^A]nt\Is;k[B!`\b0j`]vdhBv%[C#Kp;l-/@j3m_$N[Yi=uS-57F51
     P10Ny0j  C2019 05 07]yYredacted;%P^:s;eDW2Qf,uS4W(pjq3?KuclickTX.u883R1OF51
     P10Ny0j KC2019 05 08r/`*;66Zj%ksu6jbUo]depr`.0N`uWX_=w-jWwo#pD9;aHdherexH21
     P10Ny0j KC2019 05 082Pn^jVH=xOO]FF]D-'!^wfor$/uq$\@h[,r)kc`9[Wke`N1`eUmmH21
     P10Ny0j KC2019 05 081,ji;?a?'a73ZtXwZLexplanation2k=w,lcl1:$)FHs;hZ4D;u[H21
     P10Ny0j KC2019 05 08(UUa,jgs5*pAPYhbR(f[(iTCWhW!],6fE'HinA%Rl)%hEWpemRT!291
     P10Ny0j KC2019 05 08O1j`fMmm/Ht17B-puyqXX_#j0h]bC^l.(RuVyw#byxtk@[ao4XMl291
     P10Ny0j KC2019 05 08rP\(ssDpX6$:CyJBQN+*YuF:7pNIC@ANW#!Pqb8u#5OMXZU=d[v:291
     P10Ny0j  C2019 05 25.31207 16 03 22.40 +42 33 35.3    ~5PCb 21.2 GVNEOCPG96
     P10Ny0j  C2019 05 25.31724 16 03 23.98 +42 34 01.2    ~5PCb 21.1 GVNEOCPG96
     P10Ny0j  C2019 05 25.32237 16 03 25.48 +42 34 25.4    ~5PCb 21.0 GVNEOCPG96
     P10Ny0j  C2019 05 25.32751 16 03 27.06 +42 34 50.6    ~5PCb 20.9 GVNEOCPG96
     P10Ny0j  C2019 05 25.35398816 03 34.81 +42 36 55.4    ~5PCb 20.6 GVNEOCPH01
     P10Ny0j  C2019 05 25.35773016 03 35.94 +42 37 13.3    ~5PCb 20.7 GVNEOCPH01
     P10Ny0j  C2019 05 25.37460916 03 41.11 +42 38 33.6    ~5PCb 20.5 GVNEOCPH01
     P10Ny0j  C2019 05 25.37817816 03 42.23 +42 38 50.7    ~5PCb 20.8 GVNEOCPH01
     P10Ny0j  C2019 05 25.44876 16 04 04.36 +42 44 26.4    ~5PCb 21.2 GVNEOCPI52
     P10Ny0j  C2019 05 25.45125 16 04 05.13 +42 44 38.1    ~5PCb 20.6 GVNEOCPI52
     P10Ny0j  C2019 05 25.45375 16 04 06.02 +42 44 49.6    ~5PCb 21.9 GVNEOCPI52
     P10Ny0j  C2019 05 25.45625 16 04 06.84 +42 45 01.2    ~5PCb 21.5 GVNEOCPI52

Station data:
(291) LPL/Spacewatch II  (N31.961669 W111.599905)  US/Arizona.  Observers J.
   V. Scotti, R. S. McMillan. 1.8-m f/2.7 reflector + CCD.
(F51) Pan-STARRS 1, Haleakala  (N20.707235 W156.255910)  US/Hawaii.
   Observers N. Primak, A. Schultz, S. Watters, J. Thiel, T. Goggia. Measurer
   PS1 Science Consortium. 1.8-m Ritchey-Chrétien + CCD.
(G96) Mt. Lemmon Survey  (N32.442754 W110.788720)  US/Arizona.  Observers T.
   A. Pruyne, B. M. Africano, E. J. Christensen, G. A. Farneth, D. C. Fuls,
   A. R. Gibbs, A. D. Grauer, H. Groeller, J. A. Johnson, R. A. Kowalski, S.
   M. Larson, G. J. Leonard, R. L. Seaman, F. C. Shelly. 1.5-m reflector +
   10K CCD.
(H01) Magdalena Ridge Observatory, Socorro  (N33.984833 W107.189333)  US/New
   Mexico.  Observers W. H. Ryan, E. V. Ryan. Measurer W. H. Ryan. 2.4-m
   f/8.9 reflector + CCD.
(H21) Astronomical Research Observatory, Westfield  (N39.483057 W87.968270)
   US/Illinois. 0.76-m f/3.0 astrograph + CCD.
(I52) Steward Observatory, Mt. Lemmon Station  (N32.442547 W110.788920)
   US/Arizona.  Observers T. A. Pruyne, B. M. Africano, E. J. Christensen, G.
   A. Farneth, D. C. Fuls, A. R. Gibbs, A. D. Grauer, H. Groeller, J. A.
   Johnson, R. A. Kowalski, S. M. Larson, G. J. Leonard, R. L. Seaman, F. C.
   Shelly. 1.0-m reflector + CCD.

Orbital elements:  P10Ny0j
   Perihelion 2019 Jun 26.048184 +/- 0.00886 TT =  1:09:23 (JD 2458660.548184)
Epoch 2019 May 25.0 TT = JDT 2458628.5   Earth MOID: 0.1049   Ma: 0.0197
M 345.67254537 +/- 0.06             (J2000 ecliptic)          AutoNEOCP
n   0.44705979 +/- 0.00197          Peri.   97.08859 +/- 0.032
a   1.69391771 +/- 0.00499          Node   180.10380 +/- 0.033
e   0.3978580 +/- 0.00174           Incl.    6.57905 +/- 0.025
P   2.20/805.25d           H 23.8   G  0.15   U  8.6  
q 1.01997883 +/- 6.04e-5    Q 2.36785658 +/- 0.00999
From 21 observations 2019 May 7-25; mean residual 0".24
Residuals in arcseconds: 
190507 F51  .03-  .03-    190508 291  .04-  .06-    190525 H01  .05+  .04-    
190507 F51  .07+  .04-    190508 291  .01+  .17-    190525 H01  .09+  .14-    
190507 F51  .09+  .10-    190525 G96  .15-  .45-    190525 H01  .34+  .01+    
190508 H21  .02-  .09-    190525 G96  .11+  .34+    190525 I52  .47-  .21+    
190508 H21  .01+  .06+    190525 G96  .41-  .34-    190525 I52  .68-  .29+    
190508 H21  .01-  .09+    190525 G96  .08-  .03-    190525 I52  .37+  .13+    
190508 291  .08-  .35+    190525 H01  .18+  .06-    190525 I52  .65+  .07+    

Ephemerides (geocentric):
Date (UTC) HH   RA              Dec         delta   r     elong  mag " sig PA
---- -- -- --  -------------   -----------  ------ ------ -----  --- ---- ---
2019 05 26 16  16 11 16.229   +44 22 45.87  .12291 1.0699 114.5 21.5 .500  59
2019 05 26 17  16 11 31.437   +44 26 06.30  .12287 1.0698 114.5 21.5 .513  59
2019 05 26 18  16 11 46.684   +44 29 26.63  .12282 1.0696 114.4 21.5 .526  59
2019 05 26 19  16 12 01.971   +44 32 46.86  .12278 1.0695 114.3 21.5 .540  59
2019 05 26 20  16 12 17.298   +44 36 07.00  .12274 1.0694 114.3 21.5 .553  59
2019 05 26 21  16 12 32.665   +44 39 27.03  .12269 1.0693 114.2 21.5 .567  59
2019 05 26 22  16 12 48.071   +44 42 46.96  .12265 1.0691 114.1 21.5 .580  59
2019 05 26 23  16 13 03.518   +44 46 06.79  .12261 1.0690 114.1 21.5 .594  59
2019 05 27 00  16 13 19.005   +44 49 26.51  .12256 1.0689 114.0 21.5 .608  59
2019 05 27 01  16 13 34.531   +44 52 46.12  .12252 1.0687 114.0 21.5 .622  59
2019 05 27 02  16 13 50.099   +44 56 05.63  .12248 1.0686 113.9 21.5 .636  59
2019 05 27 03  16 14 05.706   +44 59 25.03  .12244 1.0685 113.8 21.5 .650  59
2019 05 27 04  16 14 21.355   +45 02 44.32  .12240 1.0683 113.8 21.5 .665  59
2019 05 27 05  16 14 37.044   +45 06 03.50  .12235 1.0682 113.7 21.5 .679  59
2019 05 27 06  16 14 52.773   +45 09 22.57  .12231 1.0681 113.6 21.5 .694  59
2019 05 27 07  16 15 08.544   +45 12 41.52  .12227 1.0680 113.6 21.5 .708  58
2019 05 27 08  16 15 24.355   +45 16 00.36  .12223 1.0678 113.5 21.5 .723  58
2019 05 27 09  16 15 40.208   +45 19 19.09  .12219 1.0677 113.5 21.5 .738  58
2019 05 27 10  16 15 56.101   +45 22 37.70  .12215 1.0676 113.4 21.5 .753  58
2019 05 27 11  16 16 12.036   +45 25 56.19  .12211 1.0674 113.3 21.5 .768  58
2019 05 27 12  16 16 28.013   +45 29 14.57  .12206 1.0673 113.3 21.5 .783  58
2019 05 27 13  16 16 44.031   +45 32 32.82  .12202 1.0672 113.2 21.5 .798  58
2019 05 27 14  16 17 00.090   +45 35 50.95  .12198 1.0671 113.1 21.5 .814  58
2019 05 27 15  16 17 16.191   +45 39 08.96  .12194 1.0669 113.1 21.5 .829  58
2019 05 27 16  16 17 32.334   +45 42 26.85  .12190 1.0668 113.0 21.5 .845  58
2019 05 27 17  16 17 48.519   +45 45 44.61  .12186 1.0667 113.0 21.5 .860  58
2019 05 27 18  16 18 04.745   +45 49 02.25  .12182 1.0665 112.9 21.5 .876  58
2019 05 27 19  16 18 21.014   +45 52 19.76  .12178 1.0664 112.8 21.5 .892  58
2019 05 27 20  16 18 37.325   +45 55 37.14  .12174 1.0663 112.8 21.5 .908  58
2019 05 27 21  16 18 53.679   +45 58 54.40  .12171 1.0662 112.7 21.5 .924  58
2019 05 27 22  16 19 10.074   +46 02 11.52  .12167 1.0660 112.6 21.5 .940  58
2019 05 27 23  16 19 26.513   +46 05 28.51  .12163 1.0659 112.6 21.5 .957  58
2019 05 28 00  16 19 42.994   +46 08 45.37  .12159 1.0658 112.5 21.5 .973  58
2019 05 28 01  16 19 59.517   +46 12 02.09  .12155 1.0657 112.5 21.5 .990  58
2019 05 28 02  16 20 16.084   +46 15 18.68  .12151 1.0655 112.4 21.5 1.01  58
2019 05 28 03  16 20 32.693   +46 18 35.13  .12147 1.0654 112.3 21.5 1.02  58
2019 05 28 04  16 20 49.346   +46 21 51.44  .12144 1.0653 112.3 21.5 1.04  58
2019 05 28 05  16 21 06.041   +46 25 07.61  .12140 1.0652 112.2 21.5 1.06  58
2019 05 28 06  16 21 22.780   +46 28 23.65  .12136 1.0650 112.2 21.5 1.07  58
2019 05 28 07  16 21 39.562   +46 31 39.54  .12132 1.0649 112.1 21.5 1.09  58
2019 05 28 08  16 21 56.388   +46 34 55.29  .12129 1.0648 112.0 21.5 1.11  58
2019 05 28 09  16 22 13.257   +46 38 10.89  .12125 1.0647 112.0 21.5 1.13  58
2019 05 28 10  16 22 30.170   +46 41 26.35  .12121 1.0645 111.9 21.5 1.14  58
2019 05 28 11  16 22 47.127   +46 44 41.67  .12117 1.0644 111.8 21.5 1.16  58
2019 05 28 12  16 23 04.127   +46 47 56.83  .12114 1.0643 111.8 21.5 1.18  58
2019 05 28 13  16 23 21.172   +46 51 11.85  .12110 1.0642 111.7 21.5 1.20  58
2019 05 28 14  16 23 38.260   +46 54 26.71  .12106 1.0640 111.7 21.5 1.22  58
2019 05 28 15  16 23 55.393   +46 57 41.43  .12103 1.0639 111.6 21.5 1.23  58